C6551 KOPF-KOPF

Flight info

Callsign C6551
Flight time 1h 40m
Altitude 3500
Route VFR
Aircraft AS65/L-SDE2E3FGRY/LB

Departure

Time 2026-05-04 16:13
Airport Miami-Opa Locka Executive Airport (KOPF)

Arrival

Time 2026-05-04 17:54
Airport Miami-Opa Locka Executive Airport (KOPF)
Time Latitude Longitude Altitude Speed Heading
2026-05-04 16:10 25.90806 -80.27557 12 ft 5 kts 301°
2026-05-04 16:11 25.90978 -80.27491 12 ft 16 kts 28°
2026-05-04 16:11 25.91085 -80.27428 12 ft 18 kts 29°
2026-05-04 16:12 25.91244 -80.26367 470 ft 124 kts 84°
2026-05-04 16:12 25.90568 -80.22817 508 ft 161 kts 100°
2026-05-04 16:13 25.90235 -80.20298 442 ft 171 kts 94°
2026-05-04 16:13 25.90040 -80.17741 640 ft 168 kts 95°
2026-05-04 16:14 25.89853 -80.15166 686 ft 174 kts 94°
2026-05-04 16:14 25.89638 -80.12556 696 ft 169 kts 96°
2026-05-04 16:15 25.87014 -80.09961 717 ft 185 kts 178°
2026-05-04 16:16 25.84604 -80.10660 701 ft 184 kts 207°
2026-05-04 16:16 25.80855 -80.11830 852 ft 185 kts 193°
2026-05-04 16:17 25.78263 -80.12282 877 ft 184 kts 191°
2026-05-04 16:18 25.74387 -80.12862 885 ft 189 kts 190°
2026-05-04 16:18 25.73108 -80.13055 864 ft 186 kts 189°
2026-05-04 16:19 25.69288 -80.14095 888 ft 184 kts 189°
2026-05-04 16:19 25.67261 -80.13508 797 ft 128 kts 141°
2026-05-04 16:20 25.64440 -80.13146 650 ft 169 kts 214°
2026-05-04 16:20 25.63334 -80.15187 628 ft 154 kts 278°
2026-05-04 16:21 25.64792 -80.18372 639 ft 167 kts 325°
2026-05-04 16:22 25.66914 -80.19172 635 ft 162 kts
2026-05-04 16:22 25.69702 -80.17519 637 ft 163 kts 55°
2026-05-04 16:23 25.69861 -80.13815 623 ft 173 kts 115°
2026-05-04 16:24 25.65590 -80.12159 611 ft 184 kts 205°
2026-05-04 16:25 25.63894 -80.14094 615 ft 179 kts 253°
2026-05-04 16:26 25.62973 -80.18721 641 ft 126 kts 237°
2026-05-04 16:26 25.60865 -80.19990 630 ft 119 kts 169°
2026-05-04 16:27 25.59848 -80.18771 623 ft 108 kts 90°
2026-05-04 16:28 25.61225 -80.17526 628 ft 101 kts 348°
2026-05-04 16:28 25.62814 -80.18420 628 ft 81 kts 318°
2026-05-04 16:29 25.62938 -80.20944 632 ft 96 kts 231°
2026-05-04 16:30 25.61045 -80.21335 614 ft 98 kts 174°
2026-05-04 16:31 25.59808 -80.20878 618 ft 94 kts 121°
2026-05-04 16:31 25.59507 -80.18960 625 ft 80 kts 86°
2026-05-04 16:32 25.59955 -80.17337 624 ft 73 kts 27°
2026-05-04 16:33 25.60948 -80.17175 628 ft 76 kts
2026-05-04 16:33 25.61981 -80.17112 622 ft 77 kts
2026-05-04 16:34 25.63037 -80.17069 632 ft 77 kts
2026-05-04 16:34 25.63556 -80.17046 625 ft 75 kts 359°
2026-05-04 16:35 25.64437 -80.18491 629 ft 80 kts 278°
2026-05-04 16:35 25.64432 -80.20386 635 ft 76 kts 277°
2026-05-04 16:36 25.64445 -80.20973 619 ft 78 kts 280°
2026-05-04 16:36 25.64128 -80.22138 635 ft 86 kts 223°
2026-05-04 16:37 25.62924 -80.22479 631 ft 92 kts 183°
2026-05-04 16:37 25.62264 -80.22502 631 ft 93 kts 181°
2026-05-04 16:37 25.60975 -80.22532 626 ft 93 kts 183°
2026-05-04 16:38 25.59695 -80.22593 626 ft 88 kts 184°
2026-05-04 16:39 25.58471 -80.21555 624 ft 75 kts 91°
2026-05-04 16:39 25.58395 -80.20374 619 ft 77 kts 83°
2026-05-04 16:40 25.58346 -80.19186 618 ft 76 kts 82°
2026-05-04 16:40 25.58301 -80.17977 622 ft 79 kts 89°
2026-05-04 16:41 25.58257 -80.16799 621 ft 74 kts 77°
2026-05-04 16:41 25.59331 -80.15987 629 ft 68 kts
2026-05-04 16:42 25.60648 -80.15895 627 ft 62 kts 11°
2026-05-04 16:43 25.61527 -80.15843 629 ft 65 kts
2026-05-04 16:43 25.62392 -80.15795 626 ft 66 kts
2026-05-04 16:43 25.62867 -80.15770 629 ft 71 kts
2026-05-04 16:44 25.64620 -80.15686 622 ft 69 kts 360°
2026-05-04 16:45 25.65386 -80.16196 590 ft 76 kts 309°
2026-05-04 16:46 25.65529 -80.18078 490 ft 81 kts 277°
2026-05-04 16:46 25.65551 -80.19166 473 ft 84 kts 278°
2026-05-04 16:47 25.65596 -80.20435 474 ft 82 kts 279°
2026-05-04 16:47 25.65657 -80.21699 459 ft 85 kts 284°
2026-05-04 16:48 25.65278 -80.23463 459 ft 87 kts 214°
2026-05-04 16:48 25.64674 -80.23656 469 ft 93 kts 185°
2026-05-04 16:49 25.63393 -80.23736 473 ft 95 kts 178°
2026-05-04 16:49 25.62134 -80.23783 466 ft 89 kts 180°
2026-05-04 16:50 25.60896 -80.23841 466 ft 90 kts 182°
2026-05-04 16:50 25.59666 -80.23901 466 ft 87 kts 184°
2026-05-04 16:51 25.58436 -80.23955 464 ft 92 kts 183°
2026-05-04 16:51 25.57823 -80.23806 467 ft 90 kts 147°
2026-05-04 16:51 25.57347 -80.22707 462 ft 80 kts 91°
2026-05-04 16:52 25.57268 -80.21513 467 ft 77 kts 88°
2026-05-04 16:52 25.57238 -80.20927 451 ft 78 kts 88°
2026-05-04 16:53 25.57197 -80.19740 453 ft 77 kts 92°
2026-05-04 16:53 25.57129 -80.17956 467 ft 76 kts 90°
2026-05-04 16:54 25.57097 -80.17382 463 ft 74 kts 85°
2026-05-04 16:55 25.57231 -80.15104 462 ft 66 kts 44°
2026-05-04 16:55 25.58098 -80.14757 468 ft 68 kts 10°
2026-05-04 16:56 25.58972 -80.14683 457 ft 61 kts
2026-05-04 16:56 25.60284 -80.14618 463 ft 66 kts 11°
2026-05-04 16:57 25.60731 -80.14591 470 ft 59 kts
2026-05-04 16:57 25.61617 -80.14542 467 ft 66 kts
2026-05-04 16:58 25.62900 -80.14477 463 ft 65 kts
2026-05-04 16:58 25.63384 -80.14458 463 ft 70 kts
2026-05-04 16:59 25.64290 -80.14416 471 ft 61 kts
2026-05-04 17:00 25.66160 -80.14405 462 ft 77 kts 342°
2026-05-04 17:00 25.66664 -80.16089 475 ft 83 kts 281°
2026-05-04 17:01 25.66660 -80.17342 460 ft 85 kts 275°
2026-05-04 17:01 25.66685 -80.18697 467 ft 91 kts 284°
2026-05-04 17:02 25.66731 -80.20073 473 ft 86 kts 283°
2026-05-04 17:02 25.66804 -80.21421 471 ft 89 kts 281°
2026-05-04 17:03 25.66831 -80.22094 465 ft 86 kts 282°
2026-05-04 17:03 25.66854 -80.22766 468 ft 87 kts 276°
2026-05-04 17:03 25.66870 -80.24068 465 ft 87 kts 263°
2026-05-04 17:04 25.65956 -80.24859 461 ft 86 kts 185°
2026-05-04 17:04 25.64720 -80.24930 474 ft 90 kts 175°
2026-05-04 17:05 25.63443 -80.24986 478 ft 91 kts 181°
2026-05-04 17:05 25.62205 -80.25066 459 ft 91 kts 181°
2026-05-04 17:06 25.60935 -80.25136 459 ft 90 kts 181°
2026-05-04 17:06 25.60318 -80.25164 458 ft 90 kts 180°
2026-05-04 17:07 25.59081 -80.25232 451 ft 89 kts 184°
2026-05-04 17:07 25.58659 -80.25252 447 ft 92 kts 184°
2026-05-04 17:07 25.57838 -80.25295 454 ft 86 kts 184°
2026-05-04 17:07 25.57248 -80.25326 449 ft 84 kts 182°
2026-05-04 17:08 25.56679 -80.25163 464 ft 85 kts 145°
2026-05-04 17:08 25.56239 -80.24074 447 ft 78 kts 89°
2026-05-04 17:08 25.56200 -80.23468 449 ft 80 kts 91°
2026-05-04 17:09 25.56170 -80.22876 456 ft 76 kts 91°
2026-05-04 17:09 25.56140 -80.22297 453 ft 75 kts 92°
2026-05-04 17:09 25.56113 -80.21705 455 ft 78 kts 90°
2026-05-04 17:10 25.56051 -80.20520 456 ft 76 kts 89°
2026-05-04 17:10 25.55963 -80.18718 457 ft 75 kts 88°
2026-05-04 17:11 25.55930 -80.18142 458 ft 75 kts 85°
2026-05-04 17:11 25.55898 -80.17575 453 ft 74 kts 86°
2026-05-04 17:11 25.55848 -80.16391 456 ft 76 kts 85°
2026-05-04 17:12 25.55824 -80.15800 450 ft 78 kts 88°
2026-05-04 17:12 25.55774 -80.14576 453 ft 78 kts 79°
2026-05-04 17:13 25.56655 -80.13550 462 ft 72 kts
2026-05-04 17:14 25.58001 -80.13434 459 ft 59 kts
2026-05-04 17:14 25.58415 -80.13415 455 ft 62 kts 12°
2026-05-04 17:14 25.59309 -80.13358 466 ft 67 kts
2026-05-04 17:15 25.59812 -80.13329 434 ft 86 kts
2026-05-04 17:15 25.61262 -80.13272 477 ft 95 kts
2026-05-04 17:16 25.62656 -80.13219 459 ft 109 kts
2026-05-04 17:16 25.64296 -80.13116 468 ft 59 kts
2026-05-04 17:17 25.64717 -80.13081 462 ft 63 kts
2026-05-04 17:17 25.66053 -80.12997 470 ft 61 kts
2026-05-04 17:18 25.66496 -80.12971 456 ft 71 kts
2026-05-04 17:18 25.67397 -80.13183 467 ft 65 kts 329°
2026-05-04 17:19 25.67674 -80.14183 466 ft 75 kts 282°
2026-05-04 17:19 25.67726 -80.15411 466 ft 76 kts 280°
2026-05-04 17:20 25.67778 -80.16751 447 ft 113 kts 279°
2026-05-04 17:20 25.67825 -80.18899 463 ft 157 kts 278°
2026-05-04 17:20 25.67871 -80.20117 467 ft 157 kts 279°
2026-05-04 17:21 25.67992 -80.22583 473 ft 158 kts 278°
2026-05-04 17:21 25.67674 -80.24979 502 ft 151 kts 240°
2026-05-04 17:22 25.67031 -80.25735 516 ft 122 kts 212°
2026-05-04 17:22 25.66341 -80.26056 514 ft 100 kts 192°
2026-05-04 17:23 25.64455 -80.26188 499 ft 113 kts 179°
2026-05-04 17:23 25.63612 -80.26218 464 ft 132 kts 180°
2026-05-04 17:23 25.62163 -80.26292 710 ft 120 kts 183°
2026-05-04 17:24 25.61257 -80.26336 626 ft 125 kts 183°
2026-05-04 17:24 25.58646 -80.26490 359 ft 120 kts 183°
2026-05-04 17:25 25.57812 -80.26537 342 ft 120 kts 182°
2026-05-04 17:25 25.56230 -80.26583 344 ft 99 kts 169°
2026-05-04 17:26 25.55273 -80.25837 332 ft 82 kts 118°
2026-05-04 17:26 25.55053 -80.24010 333 ft 81 kts 92°
2026-05-04 17:27 25.54983 -80.22795 334 ft 79 kts 91°
2026-05-04 17:27 25.54917 -80.21570 327 ft 80 kts 92°
2026-05-04 17:28 25.54866 -80.20339 329 ft 83 kts 91°
2026-05-04 17:29 25.54824 -80.17480 326 ft 150 kts 92°
2026-05-04 17:29 25.54678 -80.13771 326 ft 166 kts 84°
2026-05-04 17:30 25.56352 -80.11301 347 ft 151 kts 31°
2026-05-04 17:31 25.58158 -80.10123 332 ft 153 kts 30°
2026-05-04 17:31 25.61314 -80.09800 364 ft 152 kts
2026-05-04 17:32 25.63461 -80.09818 347 ft 159 kts
2026-05-04 17:33 25.66743 -80.10114 324 ft 158 kts 356°
2026-05-04 17:33 25.67835 -80.10279 353 ft 155 kts 354°
2026-05-04 17:34 25.71096 -80.10758 384 ft 159 kts 357°
2026-05-04 17:34 25.72184 -80.10912 401 ft 155 kts 359°
2026-05-04 17:35 25.75182 -80.12457 402 ft 159 kts 336°
2026-05-04 17:35 25.76724 -80.14279 414 ft 170 kts 310°
2026-05-04 17:35 25.77284 -80.15434 414 ft 176 kts 303°
2026-05-04 17:36 25.77499 -80.16802 429 ft 182 kts 274°
2026-05-04 17:36 25.77010 -80.17787 485 ft 121 kts 208°
2026-05-04 17:36 25.76281 -80.18076 407 ft 112 kts 198°
2026-05-04 17:36 25.75437 -80.18381 396 ft 144 kts 198°
2026-05-04 17:37 25.74421 -80.18765 417 ft 158 kts 189°
2026-05-04 17:37 25.73381 -80.18707 425 ft 145 kts 163°
2026-05-04 17:37 25.72545 -80.18169 412 ft 141 kts 131°
2026-05-04 17:37 25.72046 -80.17265 427 ft 136 kts 104°
2026-05-04 17:38 25.72005 -80.16258 417 ft 130 kts 75°
2026-05-04 17:38 25.72421 -80.15398 430 ft 127 kts 46°
2026-05-04 17:38 25.73164 -80.14842 406 ft 136 kts 30°
2026-05-04 17:38 25.73976 -80.14418 428 ft 122 kts 29°
2026-05-04 17:39 25.75638 -80.13459 408 ft 146 kts 33°
2026-05-04 17:39 25.76469 -80.12870 399 ft 144 kts 36°
2026-05-04 17:39 25.77319 -80.12237 446 ft 141 kts 38°
2026-05-04 17:40 25.78060 -80.11639 404 ft 135 kts 36°
2026-05-04 17:40 25.78881 -80.11004 422 ft 145 kts 37°
2026-05-04 17:40 25.79836 -80.10593 414 ft 154 kts 15°
2026-05-04 17:40 25.80852 -80.10498 418 ft 142 kts
2026-05-04 17:41 25.81866 -80.10456 413 ft 149 kts
2026-05-04 17:41 25.82846 -80.10423 415 ft 140 kts
2026-05-04 17:41 25.83873 -80.10408 435 ft 146 kts
2026-05-04 17:41 25.84864 -80.10378 415 ft 145 kts
2026-05-04 17:42 25.85891 -80.10346 424 ft 151 kts
2026-05-04 17:42 25.86924 -80.10312 445 ft 142 kts
2026-05-04 17:42 25.87941 -80.10281 430 ft 148 kts
2026-05-04 17:42 25.88950 -80.10247 469 ft 142 kts
2026-05-04 17:43 25.89934 -80.10219 525 ft 148 kts
2026-05-04 17:43 25.90946 -80.10390 587 ft 150 kts 345°
2026-05-04 17:43 25.91936 -80.10752 619 ft 151 kts 358°
2026-05-04 17:43 25.92954 -80.10702 620 ft 147 kts
2026-05-04 17:44 25.93924 -80.10999 696 ft 149 kts 339°
2026-05-04 17:44 25.94701 -80.11811 758 ft 157 kts 314°
2026-05-04 17:44 25.95100 -80.12960 761 ft 166 kts 288°
2026-05-04 17:44 25.95024 -80.14264 779 ft 174 kts 263°
2026-05-04 17:45 25.94635 -80.15474 964 ft 134 kts 257°
2026-05-04 17:45 25.94304 -80.16486 844 ft 145 kts 260°
2026-05-04 17:45 25.94078 -80.17506 819 ft 129 kts 268°
2026-05-04 17:45 25.93942 -80.18502 808 ft 130 kts 270°
2026-05-04 17:46 25.93958 -80.19477 800 ft 124 kts 289°
2026-05-04 17:46 25.94038 -80.20434 787 ft 135 kts 275°
2026-05-04 17:46 25.93896 -80.21482 803 ft 134 kts 266°
2026-05-04 17:46 25.93672 -80.22480 792 ft 134 kts 262°
2026-05-04 17:47 25.93412 -80.23469 800 ft 128 kts 257°
2026-05-04 17:47 25.93153 -80.24401 787 ft 126 kts 256°
2026-05-04 17:47 25.92878 -80.25361 798 ft 133 kts 259°
2026-05-04 17:47 25.92614 -80.26302 798 ft 120 kts 261°
2026-05-04 17:48 25.92367 -80.27193 783 ft 124 kts 259°
2026-05-04 17:48 25.92103 -80.28122 791 ft 126 kts 262°
2026-05-04 17:48 25.91837 -80.29071 795 ft 126 kts 262°
2026-05-04 17:48 25.91563 -80.30058 769 ft 146 kts 256°
2026-05-04 17:49 25.91265 -80.31119 815 ft 134 kts 260°
2026-05-04 17:49 25.91273 -80.32010 810 ft 101 kts 296°
2026-05-04 17:49 25.91610 -80.32604 790 ft 89 kts 327°
2026-05-04 17:49 25.92138 -80.32912 789 ft 85 kts 354°
2026-05-04 17:50 25.92715 -80.32891 794 ft 81 kts 23°
2026-05-04 17:50 25.93181 -80.32592 784 ft 80 kts 43°
2026-05-04 17:50 25.93496 -80.32049 793 ft 84 kts 70°
2026-05-04 17:50 25.93533 -80.31415 789 ft 87 kts 88°
2026-05-04 17:51 25.93386 -80.30723 798 ft 92 kts 103°
2026-05-04 17:51 25.93180 -80.30073 794 ft 90 kts 102°
2026-05-04 17:51 25.92966 -80.29410 789 ft 92 kts 104°
2026-05-04 17:51 25.92757 -80.28726 798 ft 89 kts 104°
2026-05-04 17:52 25.92427 -80.28171 790 ft 91 kts 137°
2026-05-04 17:52 25.91798 -80.27997 792 ft 102 kts 185°
2026-05-04 17:52 25.91215 -80.28395 793 ft 98 kts 240°
2026-05-04 17:52 25.91045 -80.29081 790 ft 90 kts 275°
2026-05-04 17:53 25.91072 -80.29773 789 ft 91 kts 285°
2026-05-04 17:53 25.91127 -80.30524 777 ft 110 kts 282°
2026-05-04 17:53 25.90894 -80.31448 778 ft 139 kts 245°
2026-05-04 17:53 25.90161 -80.32224 778 ft 154 kts 208°
2026-05-04 17:54 25.89231 -80.32322 819 ft 116 kts 146°
2026-05-04 17:54 25.88959 -80.31737 806 ft 70 kts 75°
2026-05-04 17:54 25.88997 -80.31312 664 ft 41 kts 76°
2026-05-04 17:54 25.89066 -80.31045 545 ft 45 kts 71°
2026-05-04 17:55 25.89213 -80.30588 494 ft 80 kts 70°
2026-05-04 17:55 25.89478 -80.29906 395 ft 110 kts 65°
2026-05-04 17:55 25.89833 -80.29126 294 ft 105 kts 65°
2026-05-04 17:55 25.90156 -80.28486 228 ft 81 kts 63°
2026-05-04 17:56 25.90404 -80.28028 117 ft 58 kts 61°
2026-05-04 17:56 25.90636 -80.27757 72 ft 39 kts 32°
2026-05-04 17:56 25.90771 -80.27669 28 ft 7 kts 33°
2026-05-04 17:56 25.90782 -80.27660 27 ft 0 kts 33°
2026-05-04 17:57 25.90782 -80.27657 17 ft 2 kts 31°
2026-05-04 17:57 25.90785 -80.27644 13 ft 2 kts 33°
2026-05-04 17:57 25.90801 -80.27633 13 ft 2 kts 31°
2026-05-04 17:57 25.90813 -80.27623 14 ft 13 kts 38°
2026-05-04 17:58 25.90838 -80.27581 13 ft 2 kts 133°
2026-05-04 17:58 25.90830 -80.27571 10 ft 5 kts 97°
2026-05-04 17:58 25.90823 -80.27535 13 ft 2 kts 288°